Weather History for Chippewa, MI

Change the Weather History Date:

Sunday, January 6, 2013

  Actual Average Record
Temperature  
Mean Temperature 26 °F -  
Max Temperature 30 °F 25 °F 41 °F (2012)
Min Temperature 21 °F 7 °F -9 °F (1979)
Degree Days  
Heating Degree Days 40    
Moisture  
Dew Point 22 °F    
Average Humidity 88    
Maximum Humidity 100    
Minimum Humidity 69    
Precipitation  
Precipitation 0.00 in - - ()
Sea Level Pressure  
Sea Level Pressure 29.95 in    
Wind  
Wind Speed 8 mph (NE)    
Max Wind Speed 13 mph    
Max Gust Speed 16 mph    
Visibility 8 miles    
Events      
Averages and records for this station are not official NWS values.
T = Trace of Precipitation, MM = Missing Value Source: NWS Daily Summary

Daily Weather History Graph

Daily Weather History Graph

Search for Another Location

Airport:

Trip Planner

Search our weather history database for the weather conditions in past years. The results will help you decide how hot, cold, wet, or windy it might be!

Date:

Astronomy

Jan. 06, 2013 Rise Set
Actual Time 8:20 AM EST 5:07 PM EST
Civil Twilight 7:45 AM EST 5:42 PM EST
Nautical Twilight 7:08 AM EST 6:19 PM EST
Astronomical Twilight 6:31 AM EST 6:56 PM EST
Moon 2:25 AM EST (1/6) 12:41 PM EST (1/6)
Length of Visible Light 9h 56m
Length of Day
8h 47m
Waning Crescent, 33% of the Moon is Illuminated
Jan 6
Waning Crescent
Jan 11
New
Jan 18
First Quarter
Jan 26
Full
Feb 3
Last Quarter

Hourly Weather History & Observations

Time (EST) Temp. Windchill Dew Point Humidity Pressure Visibility Wind Dir Wind Speed Gust Speed Precip Events Conditions
12:15 AM 26.6 °F 15.7 °F 26.6 °F 100% 29.80 in 10.0 mi ENE 12.7 mph - N/A   Overcast
12:35 AM 26.6 °F 18.2 °F 24.8 °F 93% 29.80 in 10.0 mi ENE 8.1 mph - N/A   Overcast
12:55 AM 26.6 °F 17.5 °F 24.8 °F 93% 29.79 in 10.0 mi East 9.2 mph - N/A   Overcast
1:15 AM 26.6 °F 17.5 °F 24.8 °F 93% 29.78 in 7.0 mi East 9.2 mph - N/A   Overcast
1:35 AM 26.6 °F 18.2 °F 26.6 °F 100% 29.78 in 3.0 mi East 8.1 mph - N/A   Overcast
1:55 AM 26.6 °F 19.1 °F 26.6 °F 100% 29.78 in 4.0 mi East 6.9 mph - N/A   Overcast
2:15 AM 26.6 °F 20.0 °F 26.6 °F 100% 29.78 in 5.0 mi East 5.8 mph - N/A   Overcast
2:35 AM 26.6 °F 18.2 °F 26.6 °F 100% 29.77 in 5.0 mi ESE 8.1 mph - N/A   Overcast
2:55 AM 28.4 °F 23.3 °F 26.6 °F 93% 29.78 in 7.0 mi ESE 4.6 mph - N/A   Overcast
3:15 AM 28.4 °F 21.2 °F 26.6 °F 93% 29.79 in 6.0 mi East 6.9 mph - N/A   Overcast
3:35 AM 26.6 °F 20.0 °F 24.8 °F 93% 29.78 in 5.0 mi ESE 5.8 mph - N/A   Overcast
3:55 AM 26.6 °F 22.6 °F 26.6 °F 100% 29.78 in 2.5 mi ESE 3.5 mph - N/A   Overcast
4:15 AM 26.6 °F 21.2 °F 26.6 °F 100% 29.77 in 0.5 mi East 4.6 mph - N/A   Overcast
4:35 AM 26.6 °F 22.6 °F 26.6 °F 100% 29.77 in 2.5 mi ESE 3.5 mph - N/A   Overcast
4:55 AM 26.6 °F 21.2 °F 26.6 °F 100% 29.77 in 4.0 mi SE 4.6 mph - N/A   Overcast
5:15 AM 26.6 °F 21.2 °F 26.6 °F 100% 29.76 in 3.0 mi East 4.6 mph - N/A   Overcast
5:35 AM 26.6 °F 21.2 °F 26.6 °F 100% 29.76 in 2.0 mi East 4.6 mph - N/A   Overcast
5:55 AM 26.6 °F 21.2 °F 26.6 °F 100% 29.77 in 0.8 mi ENE 4.6 mph - N/A   Overcast
6:15 AM 26.6 °F 19.1 °F 24.8 °F 93% 29.78 in 1.0 mi ENE 6.9 mph - N/A   Overcast
6:35 AM 26.6 °F 19.1 °F 26.6 °F 100% 29.79 in 2.5 mi NE 6.9 mph - N/A   Overcast
6:55 AM 24.8 °F 16.1 °F 24.8 °F 100% 29.80 in 7.0 mi NE 8.1 mph - N/A   Overcast
7:35 AM 24.8 °F 15.3 °F 24.8 °F 100% 29.82 in 8.0 mi NNE 9.2 mph - N/A   Overcast
7:55 AM 24.8 °F 15.3 °F 24.8 °F 100% 29.83 in 10.0 mi NNE 9.2 mph - N/A   Overcast
8:15 AM 24.8 °F 14.0 °F 24.8 °F 100% 29.84 in 9.0 mi NNE 11.5 mph - N/A   Overcast
8:35 AM 24.8 °F 15.3 °F 24.8 °F 100% 29.84 in 2.5 mi NE 9.2 mph - N/A   Overcast
8:55 AM 24.8 °F 14.6 °F 23.0 °F 93% 29.86 in 3.0 mi NNE 10.4 mph - N/A   Overcast
9:15 AM 24.8 °F 13.4 °F 23.0 °F 93% 29.86 in 3.0 mi NE 12.7 mph - N/A   Overcast
9:35 AM 24.8 °F 14.0 °F 23.0 °F 93% 29.87 in 3.0 mi NE 11.5 mph - N/A   Overcast
9:55 AM 23.0 °F 11.7 °F 23.0 °F 100% 29.88 in 5.0 mi NE 11.5 mph - N/A   Mostly Cloudy
10:15 AM 24.8 °F 15.3 °F 21.2 °F 86% 29.89 in 9.0 mi NE 9.2 mph 16.1 mph N/A   Mostly Cloudy
10:35 AM 24.8 °F 15.3 °F 23.0 °F 93% 29.90 in 10.0 mi NE 9.2 mph - N/A   Overcast
10:55 AM 24.8 °F 14.6 °F 21.2 °F 86% 29.91 in 10.0 mi NE 10.4 mph - N/A   Overcast
11:15 AM 24.8 °F 15.3 °F 21.2 °F 86% 29.92 in 9.0 mi NE 9.2 mph - N/A   Overcast
11:35 AM 24.8 °F 14.0 °F 21.2 °F 86% 29.92 in 5.0 mi NNE 11.5 mph - N/A   Overcast
11:55 AM 24.8 °F 15.3 °F 21.2 °F 86% 29.93 in 3.0 mi NNE 9.2 mph - N/A   Overcast
12:15 PM 24.8 °F 16.1 °F 21.2 °F 86% 29.93 in 10.0 mi NNE 8.1 mph - N/A   Overcast
12:35 PM 26.6 °F 19.1 °F 21.2 °F 80% 29.94 in 10.0 mi NNE 6.9 mph - N/A   Overcast
12:55 PM 26.6 °F 17.5 °F 19.4 °F 74% 29.94 in 10.0 mi NNE 9.2 mph - N/A   Overcast
1:15 PM 26.6 °F 19.1 °F 19.4 °F 74% 29.95 in 10.0 mi NNW 6.9 mph - N/A   Scattered Clouds
1:35 PM 28.4 °F 20.4 °F 19.4 °F 69% 29.95 in 10.0 mi North 8.1 mph - N/A   Clear
1:55 PM 30.2 °F 21.9 °F 21.2 °F 69% 29.96 in 10.0 mi NNW 9.2 mph - N/A   Clear
2:15 PM 30.2 °F 21.3 °F 21.2 °F 69% 29.96 in 10.0 mi NW 10.4 mph - N/A   Clear
2:35 PM 28.4 °F 20.4 °F 19.4 °F 69% 29.97 in 10.0 mi North 8.1 mph - N/A   Clear
2:55 PM 30.2 °F 22.6 °F 21.2 °F 69% 29.98 in 10.0 mi North 8.1 mph - N/A   Clear
3:15 PM 26.6 °F 15.7 °F 21.2 °F 80% 29.99 in 10.0 mi NW 12.7 mph - N/A   Mostly Cloudy
3:35 PM 26.6 °F 18.2 °F 19.4 °F 74% 30.01 in 10.0 mi NW 8.1 mph - N/A   Overcast
3:55 PM 24.8 °F 14.0 °F 19.4 °F 80% 30.03 in 10.0 mi NW 11.5 mph - N/A   Mostly Cloudy
4:15 PM 26.6 °F 18.2 °F 21.2 °F 80% 30.04 in 10.0 mi WNW 8.1 mph - N/A   Overcast
4:35 PM 26.6 °F 19.1 °F 21.2 °F 80% 30.05 in 10.0 mi NW 6.9 mph - N/A   Overcast
4:55 PM 24.8 °F 15.3 °F 19.4 °F 80% 30.06 in 10.0 mi NNW 9.2 mph - N/A   Overcast
5:15 PM 24.8 °F 17.9 °F 19.4 °F 80% 30.08 in 10.0 mi NW 5.8 mph - N/A   Overcast
5:35 PM 24.8 °F 14.6 °F 19.4 °F 80% 30.08 in 10.0 mi NNW 10.4 mph - N/A   Overcast
5:55 PM 24.8 °F 16.1 °F 19.4 °F 80% 30.10 in 10.0 mi NW 8.1 mph - N/A   Overcast
6:15 PM 24.8 °F 16.9 °F 19.4 °F 80% 30.10 in 10.0 mi NW 6.9 mph - N/A   Overcast
6:35 PM 24.8 °F 17.9 °F 19.4 °F 80% 30.11 in 10.0 mi NW 5.8 mph - N/A   Overcast
6:55 PM 24.8 °F - 19.4 °F 80% 30.12 in 10.0 mi Calm Calm - N/A   Overcast
7:15 PM 24.8 °F - 19.4 °F 80% 30.13 in 10.0 mi Calm Calm - N/A   Overcast
7:35 PM 24.8 °F 17.9 °F 21.2 °F 86% 30.13 in 10.0 mi WNW 5.8 mph - N/A   Overcast
7:55 PM 24.8 °F 16.9 °F 21.2 °F 86% 30.14 in 10.0 mi WNW 6.9 mph - N/A   Overcast
8:15 PM 24.8 °F 16.1 °F 21.2 °F 86% 30.15 in 10.0 mi West 8.1 mph - N/A   Overcast
8:35 PM 24.8 °F 16.9 °F 21.2 °F 86% 30.15 in 10.0 mi West 6.9 mph - N/A   Overcast
8:55 PM 24.8 °F 19.1 °F 21.2 °F 86% 30.14 in 10.0 mi West 4.6 mph - N/A   Overcast
9:15 PM 24.8 °F 20.5 °F 21.2 °F 86% 30.15 in 10.0 mi West 3.5 mph - N/A   Overcast
9:35 PM 24.8 °F 20.5 °F 21.2 °F 86% 30.16 in 10.0 mi WSW 3.5 mph - N/A   Overcast
9:55 PM 24.8 °F 20.5 °F 21.2 °F 86% 30.16 in 10.0 mi ENE 3.5 mph - N/A   Overcast
10:15 PM 23.0 °F 17.0 °F 17.6 °F 80% 30.16 in 10.0 mi ESE 4.6 mph - N/A   Overcast
10:35 PM 23.0 °F 14.7 °F 17.6 °F 80% 30.17 in 10.0 mi ESE 6.9 mph - N/A   Overcast
10:55 PM 21.2 °F 13.6 °F 17.6 °F 86% 30.18 in 10.0 mi SE 5.8 mph - N/A   Overcast
11:15 PM 21.2 °F 13.6 °F 15.8 °F 80% 30.19 in 10.0 mi SE 5.8 mph - N/A   Overcast
11:35 PM 21.2 °F 12.6 °F 15.8 °F 80% 30.19 in 10.0 mi SE 6.9 mph - N/A   Overcast
11:55 PM 21.2 °F 14.9 °F 15.8 °F 80% 30.20 in 10.0 mi SSE 4.6 mph - N/A   Overcast